一网星座-0110星 (ONEWEB-0110 )

导读 | 星芒AI

ONEWEB-0110 是 OneWeb 卫星通信公司发射的低轨通信卫星之一,旨在为全球提供高速互联网服务。该卫星运行在约 1200 公里的近地轨道,属于 OneWeb 的星座计划,用于填补全球数字鸿沟,特别是在偏远和农村地区。ONEWEB-0110 采用先进通信技术,支持宽带数据传输,助力航空、航海及地面用户的互联网接入。该卫星的发射进一步推动了 OneWeb 构建全球覆盖的卫星互联网网络的目标。

基本信息
目录编号:
47260
目录名称:
ONEWEB-0110
国际标识:
2020-100C
轨道中心:
EARTH
卫星名称:
一网星座-0110星
卫星全名:
一网星座-0110星 (ONEWEB-0110 )
卫星状态:
在轨 (已飞行1765 天)
发射日期:
2020-12-18 UTC
国别 :
英国 (GB)
星等 :
--
轨道信息
数据来源 国际轨道数据
星历时间: 2025-10-18T03:27:41+0800
10小时前
查看轨道信息
半长轴: 7591.853km
偏心率: 0.0001668
轨道倾角: 87.896°
近地点辐角 110.690°
升交点赤经 38.786°
平近点角 249.441°
近地点: 1212.451km
远地点: 1214.985km
周期: 109.719分钟
每日圈数: 13.124451
详细信息
平衡模式:
三轴稳定
覆盖范围:
全球
运营商:
一网卫星公司
运营商所在国:
英国
制造商(研发单位):
一网卫星公司
制造商所在国:
英国
使用方式:
暂无
卫星简介
OneWeb卫星网络由648颗重约125公斤的微型卫星组成,运行在1200公里的轨道上。 每颗卫星都能够提供至少每秒8千兆位的吞吐量,以使用其高吞吐量的Ku频段有效载荷为家庭和移动平台提供互联网接入。该卫星仍在工作。
2D轨道图
3D轨道图
轨道高度分析图
轨道倾角分析图
轨道综合分析图
查看轨道综合分析图